Location: Nebraska Star Party
(42.6000°N, 100.8833°W)
Time: 04:55:54
(UTC-06:00)

Amateur Radio Satellites - All Passes

Search period start: 23 November 2014 04:25
Search period end: 24 November 2014 04:25
Location: Nebraska Star Party, 42.6000°N, 100.8833°W

Satellite Date Start Highest point End Downlink Frequencies (MHz)
Time Altitude Azimuth
AO-7 23 Nov 04:28:40 04:36:34 44° 99° (E) 04:44:24 29.400- 29.500
YUBILEINY 23 Nov 04:29:19 04:37:49 51° 285° (WNW) 04:46:20 435.215
ITAMSAT 1 23 Nov 04:39:09 04:42:26 17° 300° (WNW) 04:45:42 435.822/435.867
PCSat 23 Nov 04:40:11 04:44:20 22° 44° (NE) 04:48:29 145.827
JAS-2 23 Nov 04:40:54 04:45:37 18° 86° (E) 04:49:59 435.910
PRISM 23 Nov 04:42:30 04:44:34 14° 62° (ENE) 04:46:38 437.425
RS-15 23 Nov 04:51:03 04:58:04 19° 261° (W) 05:05:17 29.354- 29.394
Gurwin Techsat 1B 23 Nov 04:51:21 04:55:24 23° 297° (WNW) 04:59:26 435.225
SO-50 23 Nov 05:16:47 05:21:17 86° 123° (ESE) 05:25:58 436.795
CUBESAT XI-V 23 Nov 05:25:41 05:28:27 16° 62° (ENE) 05:31:14 437.345
MOZHAYETS 4 23 Nov 05:28:59 05:33:18 41° 262° (W) 05:37:41
BEESAT 3 23 Nov 05:46:59 05:50:59 41° 51° (NE) 05:54:56 437.485
ISS 23 Nov 05:49:53 05:52:36 23° 16° (NNE) 05:55:19 145.825
CUTE-I 23 Nov 05:55:15 05:58:33 17° 91° (E) 06:01:50 437.470
BEESAT 2 23 Nov 05:59:39 06:03:46 49° 52° (NE) 06:07:50 435.950
STRAND 1 23 Nov 06:13:31 06:18:26 47° 70° (ENE) 06:23:21 437.568
PRISM 23 Nov 06:15:28 06:19:37 60° 259° (W) 06:23:49 437.425
AIST 2 23 Nov 06:19:38 06:23:44 41° 50° (NE) 06:27:47 435.215
AO-7 23 Nov 06:21:31 06:29:20 46° 298° (WNW) 06:37:08 29.400- 29.500
AIST 1 23 Nov 06:22:05 06:23:07 11° 66° (ENE) 06:24:08
PCSat 23 Nov 06:22:52 06:28:17 69° 243° (WSW) 06:33:38 145.827
JAS-2 23 Nov 06:24:15 06:31:37 80° 286° (WNW) 06:38:04 435.910
O/OREOS (USA 219) 23 Nov 06:41:37 06:45:45 37° 106° (ESE) 06:49:53 437.305
Cubesat XI-IV 23 Nov 06:51:26 06:56:40 55° 101° (E) 07:01:52 437.490
SO-50 23 Nov 06:59:33 07:02:30 17° 323° (NW) 07:05:31 436.795
CUBESAT XI-V 23 Nov 07:00:43 07:05:23 62° 259° (W) 07:10:05 437.345
BEESAT 3 23 Nov 07:25:49 07:28:57 21° 248° (WSW) 07:32:04 437.485
ISS 23 Nov 07:26:16 07:29:35 84° 215° (SW) 07:32:53 145.825
CUTE-I 23 Nov 07:33:48 07:39:05 65° 288° (WNW) 07:44:19 437.470
BEESAT 2 23 Nov 07:38:56 07:41:41 17° 250° (WSW) 07:44:25 435.950
STRAND 1 23 Nov 07:53:54 07:57:50 22° 267° (W) 08:01:47 437.568
AIST 1 23 Nov 07:56:57 08:01:21 73° 264° (W) 08:05:41
AIST 2 23 Nov 07:58:50 08:02:07 22° 248° (WSW) 08:05:22 435.215
JAS-2 23 Nov 08:11:03 08:15:20 17° 308° (NW) 08:19:23 435.910
AO-7 23 Nov 08:17:55 08:20:00 11° 321° (NW) 08:22:06 29.400- 29.500
HO-68 23 Nov 08:20:28 08:25:01 18° 90° (E) 08:29:31 435.675
O/OREOS (USA 219) 23 Nov 08:21:39 08:25:15 23° 304° (WNW) 08:28:52 437.305
GONETS M04 23 Nov 08:22:52 08:30:50 40° 86° (E) 08:38:50
Cubesat XI-IV 23 Nov 08:32:26 08:36:21 21° 298° (WNW) 08:40:15 437.490
CUTE 1.7 & AOD 2 23 Nov 08:39:52 08:42:15 15° 91° (E) 08:44:38 437.475
BRITE-PL 23 Nov 08:47:29 08:50:01 16° 92° (E) 08:52:33 437.365/2234.400
ISS 23 Nov 09:05:12 09:05:43 10° 231° (SW) 09:06:15 145.825
SEEDS 23 Nov 09:15:47 09:19:35 31° 96° (E) 09:23:23 437.485
POLYITAN 1 23 Nov 09:21:59 09:22:43 10° 60° (ENE) 09:23:26 437.675
TIGRISAT 23 Nov 09:23:34 09:26:01 15° 63° (ENE) 09:28:28 435.000
QB50P2 23 Nov 09:24:40 09:25:59 11° 61° (ENE) 09:27:17 145.880/145.840
DX 1 23 Nov 09:25:13 09:27:18 13° 91° (E) 09:29:22 434.975-435.025
DUCHIFAT 1 23 Nov 09:31:58 09:34:00 13° 62° (ENE) 09:36:03 145.980
UNISAT 6 23 Nov 09:34:41 09:37:48 20° 66° (ENE) 09:40:55 437.425
AAUSAT CUBESAT 2 23 Nov 09:38:47 09:42:48 41° 98° (E) 09:46:48 437.432
CANX-2 23 Nov 09:39:06 09:43:23 72° 102° (ESE) 09:47:40 2200.000
DOVE 4 23 Nov 09:43:49 09:47:39 35° 98° (E) 09:51:33 437.250
NANOSAT C BR1 23 Nov 09:49:35 09:52:43 20° 66° (ENE) 09:55:51 145.865
ZACube-1 23 Nov 09:51:02 09:52:44 12° 90° (E) 09:54:27 437.345
COMPASS 1 23 Nov 09:51:46 09:56:00 67° 101° (E) 10:00:13 437.405
QB50P1 23 Nov 09:58:37 10:02:07 25° 67° (ENE) 10:05:36 145.935-145.965
DELFI C3 23 Nov 09:59:47 10:03:26 30° 96° (E) 10:07:05 145.870
ANTELSAT 23 Nov 10:02:04 10:06:01 38° 71° (ENE) 10:09:59 437.575/2403.000
AISAT 23 Nov 10:06:07 10:07:40 12° 90° (E) 10:09:13 437.250
HO-68 23 Nov 10:06:19 10:13:33 85° 288° (WNW) 10:20:42 435.675
GOMX 1 23 Nov 10:11:32 10:15:42 82° 284° (WNW) 10:19:54 467.674
CUTE 1.7 & AOD 2 23 Nov 10:14:19 10:18:28 51° 287° (WNW) 10:22:38 437.475
GONETS M04 23 Nov 10:19:08 10:27:29 47° 286° (WNW) 10:35:57
POPSAT HIP 1 23 Nov 10:22:20 10:26:23 44° 72° (ENE) 10:30:27 437.405
BUGSAT 1 23 Nov 10:24:47 10:28:46 39° 71° (ENE) 10:32:44 437.445
BRITE-PL 23 Nov 10:24:53 10:28:49 41° 288° (WNW) 10:32:43 437.365/2234.400
FUNcube-1 23 Nov 10:25:19 10:29:00 29° 96° (E) 10:32:43 145.935
UKube-1 23 Nov 10:27:05 10:31:24 61° 102° (ESE) 10:35:40 .
CUBEBUG 2 23 Nov 10:36:44 10:40:52 53° 100° (E) 10:45:04 437.445
Oscar 11 23 Nov 10:40:42 10:45:04 81° 284° (WNW) 10:49:24 145.826/435.025
CINEMA 3 23 Nov 10:42:11 10:46:23 83° 283° (WNW) 10:50:40 145.822/145.860
UWE-3 23 Nov 10:43:22 10:47:31 55° 100° (E) 10:51:44 435.000/436.395/437.385
SEEDS 23 Nov 10:51:52 10:55:17 24° 292° (WNW) 10:58:43 437.485
POLYITAN 1 23 Nov 10:53:45 10:58:02 81° 257° (WSW) 11:02:19 437.675
QB50P2 23 Nov 10:57:02 11:01:18 75° 258° (WSW) 11:05:35 145.880/145.840
TIGRISAT 23 Nov 10:58:13 11:02:23 52° 260° (W) 11:06:33 435.000
DX 1 23 Nov 10:59:38 11:03:55 58° 287° (WNW) 11:08:09 434.975-435.025
SHINDAISAT 23 Nov 11:04:04 11:05:26 22° 119° (ESE) 11:06:48 437.305
ESTCUBE 1 23 Nov 11:04:31 11:07:49 20° 93° (E) 11:11:06 437.505/2401.250
DUCHIFAT 1 23 Nov 11:05:10 11:09:23 61° 259° (W) 11:13:37 145.980
UNISAT 6 23 Nov 11:10:24 11:14:23 37° 262° (W) 11:18:22 437.425
AAUSAT CUBESAT 2 23 Nov 11:15:17 11:18:11 18° 295° (WNW) 11:21:06 437.432
VELOX 1 23 Nov 11:15:57 11:20:23 66° 102° (ESE) 11:24:45 145.980
CANX-2 23 Nov 11:17:13 11:18:45 12° 298° (WNW) 11:20:17 2200.000
DOVE 4 23 Nov 11:22:15 11:25:15 20° 294° (WNW) 11:28:17 437.250
NANOSAT C BR1 23 Nov 11:24:25 11:28:22 37° 262° (W) 11:32:21 145.865
ZACube-1 23 Nov 11:25:20 11:29:29 59° 286° (WNW) 11:33:41 437.345
COMPASS 1 23 Nov 11:29:28 11:31:12 12° 298° (WNW) 11:32:56 437.405
HUMSAT D 23 Nov 11:31:10 11:35:20 83° 284° (WNW) 11:39:31 437.325/437.525
QB50P1 23 Nov 11:34:10 11:37:54 29° 264° (W) 11:41:40 145.935-145.965
DELFI C3 23 Nov 11:35:19 11:38:37 23° 292° (WNW) 11:41:54 145.870
ANTELSAT 23 Nov 11:39:57 11:42:59 19° 267° (W) 11:46:03 437.575/2403.000
50 SAT 23 Nov 11:40:07 11:44:11 78° 284° (WNW) 11:48:15 437.505
AISAT 23 Nov 11:40:22 11:44:46 67° 286° (WNW) 11:49:08 437.250
Oscar 19 23 Nov 11:54:27 11:56:58 14° 59° (ENE) 11:59:29 437.125/150
HO-68 23 Nov 11:55:40 12:00:15 19° 307° (NW) 12:04:49 435.675
POPSAT HIP 1 23 Nov 11:59:47 12:02:31 17° 268° (W) 12:05:15 437.405
BUGSAT 1 23 Nov 12:01:24 12:04:25 19° 267° (W) 12:07:25 437.445
FUNcube-1 23 Nov 12:01:50 12:05:16 25° 292° (WNW) 12:08:44 145.935
CUBEBUG 1 23 Nov 12:04:29 12:08:53 81° 103° (ESE) 12:13:13 437.445
UKube-1 23 Nov 12:04:49 12:07:04 14° 298° (WNW) 12:09:18 .
TISAT 1 23 Nov 12:04:51 12:08:01 20° 94° (E) 12:11:09 437.305
SPROUT 23 Nov 12:05:26 12:08:26 18° 93° (E) 12:11:26 437.525
SO-50 23 Nov 12:08:05 12:11:18 17° 38° (NE) 12:14:32 436.795
CUBEBUG 2 23 Nov 12:14:52 12:17:11 15° 296° (WNW) 12:19:30 437.445
UWE-3 23 Nov 12:21:24 12:23:39 14° 296° (WNW) 12:25:55 435.000/436.395/437.385
ITAMSAT 1 23 Nov 12:40:27 12:43:23 15° 59° (ENE) 12:46:19 435.822/435.867
ESTCUBE 1 23 Nov 12:40:36 12:44:53 42° 289° (WNW) 12:49:08 437.505/2401.250
YUBILEINY 23 Nov 12:43:04 12:48:45 19° 60° (ENE) 12:54:23 435.215
VELOX 1 23 Nov 12:54:17 12:56:26 13° 299° (WNW) 12:58:34 145.980
Gurwin Techsat 1B 23 Nov 12:56:28 12:58:34 12° 57° (ENE) 13:00:40 435.225
ITUPSAT 1 23 Nov 13:06:44 13:09:28 15° 91° (E) 13:12:10 437.325
CUSAT 1 23 Nov 13:09:15 13:10:39 13° 93° (E) 13:12:00 437.405
SWISSCUBE 23 Nov 13:18:07 13:21:47 22° 93° (E) 13:25:26 437.505
DANDE 23 Nov 13:21:44 13:23:40 16° 95° (E) 13:25:28 436.750
Oscar 19 23 Nov 13:30:30 13:35:36 82° 256° (WSW) 13:40:45 437.125/150
TISAT 1 23 Nov 13:40:07 13:43:57 35° 290° (WNW) 13:47:46 437.305
SPROUT 23 Nov 13:40:42 13:44:42 39° 289° (WNW) 13:48:40 437.525
AO-7 23 Nov 13:40:51 13:45:09 15° 44° (NE) 13:49:26 29.400- 29.500
HORYU 2 23 Nov 13:43:13 13:44:50 12° 60° (ENE) 13:46:26 437.375
CUBEBUG 1 23 Nov 13:43:28 13:44:35 11° 300° (WNW) 13:45:43 437.445
SO-50 23 Nov 13:47:38 13:52:32 89° 237° (WSW) 13:57:26 436.795
BEESAT 23 Nov 13:49:13 13:53:45 40° 98° (E) 13:58:14 436.000
AUBIESAT-1 23 Nov 13:55:33 14:00:25 57° 105° (ESE) 14:05:11 437.475
M-CUBED/EXP-1 PRIME 23 Nov 13:58:40 14:03:36 67° 106° (ESE) 14:08:27 437.505
ITAMSAT 1 23 Nov 14:17:01 14:22:14 77° 257° (WSW) 14:27:29 435.822/435.867
STARS 23 Nov 14:28:56 14:31:18 14° 91° (E) 14:33:41 437.465
Gurwin Techsat 1B 23 Nov 14:32:23 14:37:41 84° 75° (ENE) 14:43:02 435.225
YUBILEINY 23 Nov 14:38:13 14:47:00 85° 82° (E) 14:55:41 435.215
ITUPSAT 1 23 Nov 14:43:00 14:47:46 61° 287° (WNW) 14:52:29 437.325
CUSAT 1 23 Nov 14:52:16 14:53:41 13° 287° (WNW) 14:55:04 437.405
SWISSCUBE 23 Nov 14:55:17 14:59:49 42° 290° (WNW) 15:04:19 437.505
JAS-2 23 Nov 14:55:49 14:58:45 13° 49° (NE) 15:01:42 435.910
RS-15 23 Nov 14:56:40 15:00:50 13° 95° (E) 15:04:59 29.354- 29.394
KKS-1 23 Nov 15:02:04 15:06:22 48° 100° (E) 15:10:38 437.445
DANDE 23 Nov 15:06:04 15:07:05 11° 287° (WNW) 15:08:04 436.750
O/OREOS (USA 219) 23 Nov 15:13:53 15:14:48 11° 48° (NE) 15:15:43 437.305
HORYU 2 23 Nov 15:16:28 15:20:53 77° 257° (WSW) 15:25:20 437.375
BEESAT 23 Nov 15:27:35 15:31:22 24° 295° (WNW) 15:35:07 436.000
AO-7 23 Nov 15:28:11 15:36:17 62° 66° (ENE) 15:44:27 29.400- 29.500
SO-50 23 Nov 15:30:53 15:32:21 11° 253° (WSW) 15:33:49 436.795
AUBIESAT-1 23 Nov 15:31:25 15:34:58 20° 302° (WNW) 15:38:30 437.475
M-CUBED/EXP-1 PRIME 23 Nov 15:34:51 15:38:07 18° 303° (WNW) 15:41:22 437.505
STARS 23 Nov 16:03:50 16:08:08 54° 287° (WNW) 16:12:24 437.465
MaSat-1 23 Nov 16:07:19 16:10:17 45° 114° (ESE) 16:12:59 437.345
Gurwin Techsat 1B 23 Nov 16:16:14 16:18:19 12° 272° (W) 16:20:23 435.225
PHONESAT 2.4 23 Nov 16:16:47 16:19:40 21° 153° (SSE) 16:22:34 2401.200-2431.200
JAS-2 23 Nov 16:34:44 16:42:02 54° 68° (ENE) 16:49:39 435.910
YUBILEINY 23 Nov 16:36:51 16:42:37 20° 282° (WNW) 16:48:22 435.215
Cubesat XI-IV 23 Nov 16:37:28 16:40:14 14° 58° (ENE) 16:42:59 437.490
VERMONT LUNAR 23 Nov 16:38:37 16:41:55 33° 160° (SSE) 16:45:14 437.305
KKS-1 23 Nov 16:39:42 16:42:39 18° 296° (WNW) 16:45:35 437.445
O/OREOS (USA 219) 23 Nov 16:50:28 16:54:58 82° 67° (ENE) 16:59:26 437.305
RS-15 23 Nov 17:00:03 17:10:50 66° 116° (ESE) 17:21:35 29.354- 29.394
CUTE-I 23 Nov 17:17:23 17:22:00 30° 66° (ENE) 17:26:38 437.470
AO-7 23 Nov 17:22:27 17:29:30 31° 265° (W) 17:36:38 29.400- 29.500
MOZHAYETS 4 23 Nov 17:23:21 17:27:49 44° 98° (E) 17:32:15
PHONESAT 2.4 23 Nov 17:54:26 17:58:04 53° 170° (S) 18:01:43 2401.200-2431.200
PRISM 23 Nov 17:59:02 18:02:02 19° 93° (E) 18:05:00 437.425
Cubesat XI-IV 23 Nov 18:14:12 18:19:35 86° 256° (WSW) 18:24:59 437.490
VERMONT LUNAR 23 Nov 18:16:34 18:20:10 63° 177° (S) 18:23:46 437.305
JAS-2 23 Nov 18:20:33 18:27:15 34° 267° (W) 18:34:17 435.910
STRAND 1 23 Nov 18:24:54 18:27:41 15° 90° (E) 18:30:27 437.568
GONETS M04 23 Nov 18:32:26 18:38:43 21° 61° (ENE) 18:44:57
HO-68 23 Nov 18:51:22 18:55:33 17° 52° (NE) 18:59:44 435.675
CUTE-I 23 Nov 18:57:01 19:01:57 37° 263° (W) 19:06:54 437.470
CUBESAT XI-V 23 Nov 18:57:19 19:01:29 31° 96° (E) 19:05:35 437.345
MOZHAYETS 4 23 Nov 19:01:18 19:04:44 21° 295° (WNW) 19:08:09
RS-15 23 Nov 19:13:37 19:23:48 43° 321° (NW) 19:34:09 29.354- 29.394
PCSat 23 Nov 19:25:13 19:27:42 13° 103° (ESE) 19:30:11 145.827
PHONESAT 2.4 23 Nov 19:33:03 19:36:44 59° 187° (S) 19:40:23 2401.200-2431.200
PRISM 23 Nov 19:33:46 19:37:44 39° 290° (WNW) 19:41:40 437.425
CUTE 1.7 & AOD 2 23 Nov 19:34:57 19:36:44 12° 62° (ENE) 19:38:30 437.475
GOMX 1 23 Nov 19:45:07 19:47:21 13° 63° (ENE) 19:49:31 467.674
VERMONT LUNAR 23 Nov 19:55:00 19:58:30 46° 194° (SSW) 20:01:59 437.305
BRITE-PL 23 Nov 19:58:27 20:02:32 25° 68° (ENE) 20:06:23 437.365/2234.400
Cubesat XI-IV 23 Nov 19:59:19 20:00:25 11° 273° (W) 20:01:31 437.490
STRAND 1 23 Nov 20:02:16 20:07:22 68° 287° (WNW) 20:12:24 437.568
SEEDS 23 Nov 20:09:27 20:12:50 25° 68° (ENE) 20:16:16 437.485
CINEMA 3 23 Nov 20:12:10 20:12:39 10° 61° (ENE) 20:13:07 145.822/145.860
DX 1 23 Nov 20:22:04 20:24:25 14° 62° (ENE) 20:26:46 434.975-435.025
AIST 1 23 Nov 20:27:02 20:31:22 64° 95° (E) 20:35:46
GONETS M04 23 Nov 20:27:55 20:36:49 88° 263° (W) 20:45:36
AAUSAT CUBESAT 2 23 Nov 20:31:12 20:34:53 31° 70° (ENE) 20:38:35 437.432
CANX-2 23 Nov 20:32:59 20:37:05 55° 74° (ENE) 20:41:14 2200.000
CUBESAT XI-V 23 Nov 20:34:51 20:38:50 28° 293° (WNW) 20:42:45 437.345
HO-68 23 Nov 20:34:57 20:42:07 78° 71° (ENE) 20:49:20 435.675
COMPASS 1 23 Nov 20:44:17 20:48:18 49° 73° (ENE) 20:52:21 437.405
ZACube-1 23 Nov 20:49:08 20:50:37 12° 62° (ENE) 20:52:07 437.345
DELFI C3 23 Nov 20:49:57 20:53:06 22° 67° (ENE) 20:56:15 145.870
DOVE 4 23 Nov 20:50:15 20:54:39 42° 72° (ENE) 20:58:50 437.250
PCSat 23 Nov 21:04:55 21:10:20 85° 300° (WNW) 21:15:48 145.827
AISAT 23 Nov 21:05:22 21:07:33 14° 61° (ENE) 21:09:44 437.250
CUTE 1.7 & AOD 2 23 Nov 21:07:57 21:12:07 65° 259° (W) 21:16:20 437.475
PHONESAT 2.4 23 Nov 21:12:01 21:15:13 27° 203° (SSW) 21:18:24 2401.200-2431.200
GOMX 1 23 Nov 21:20:08 21:25:00 72° 258° (WSW) 21:29:34 467.674
BEESAT 3 23 Nov 21:20:25 21:24:28 64° 120° (ESE) 21:28:36 437.485
FUNcube-1 23 Nov 21:22:37 21:26:07 26° 68° (ENE) 21:29:35 145.935
UKube-1 23 Nov 21:22:52 21:27:08 58° 73° (ENE) 21:31:26 .
RS-15 23 Nov 21:32:00 21:40:11 23° 354° (N) 21:48:31 29.354- 29.394
BEESAT 2 23 Nov 21:33:41 21:37:48 80° 122° (ESE) 21:42:00 435.950
VERMONT LUNAR 23 Nov 21:34:11 21:36:29 16° 210° (SSW) 21:38:47 437.305
CUBEBUG 2 23 Nov 21:36:06 21:40:14 49° 73° (ENE) 21:44:18 437.445
Oscar 11 23 Nov 21:36:06 21:40:24 86° 75° (ENE) 21:44:44 145.826/435.025
BRITE-PL 23 Nov 21:36:09 21:40:54 38° 262° (W) 21:45:20 437.365/2234.400
UWE-3 23 Nov 21:41:39 21:45:45 49° 73° (ENE) 21:49:48 435.000/436.395/437.385
CINEMA 3 23 Nov 21:44:49 21:49:16 83° 257° (WSW) 21:53:34 145.822/145.860
SEEDS 23 Nov 21:44:56 21:48:34 29° 264° (W) 21:52:15 437.485
DX 1 23 Nov 21:55:50 22:00:10 60° 258° (WSW) 22:04:32 434.975-435.025
AIST 2 23 Nov 21:56:52 22:01:03 69° 121° (ESE) 22:05:20 435.215
ESTCUBE 1 23 Nov 22:05:21 22:08:45 21° 65° (ENE) 22:12:09 437.505/2401.250
AAUSAT CUBESAT 2 23 Nov 22:07:22 22:10:36 22° 266° (W) 22:13:53 437.432
AIST 1 23 Nov 22:07:43 22:09:31 12° 293° (WNW) 22:11:20
CANX-2 23 Nov 22:11:28 22:13:24 13° 270° (W) 22:15:20 2200.000
VELOX 1 23 Nov 22:14:28 22:18:55 65° 74° (ENE) 22:23:22 145.980
COMPASS 1 23 Nov 22:22:07 22:24:20 14° 269° (W) 22:26:35 437.405
ZACube-1 23 Nov 22:22:15 22:26:29 68° 258° (WSW) 22:30:39 437.345
HUMSAT D 23 Nov 22:24:11 22:28:19 77° 76° (ENE) 22:32:27 437.325/437.525
DELFI C3 23 Nov 22:24:38 22:28:15 31° 264° (W) 22:31:54 145.870
HO-68 23 Nov 22:25:30 22:30:31 20° 269° (W) 22:35:35 435.675
GONETS M04 23 Nov 22:26:53 22:32:17 18° 284° (WNW) 22:37:40
DOVE 4 23 Nov 22:29:16 22:32:35 19° 266° (W) 22:35:47 437.250
50 SAT 23 Nov 22:29:43 22:33:45 74° 75° (ENE) 22:37:47 437.505
AISAT 23 Nov 22:39:10 22:43:38 68° 258° (WSW) 22:48:07 437.250
POLYITAN 1 23 Nov 22:40:24 22:42:59 16° 92° (E) 22:45:33 437.675
QB50P2 23 Nov 22:43:17 22:46:04 17° 92° (E) 22:48:50 145.880/145.840
TIGRISAT 23 Nov 22:49:23 22:53:13 29° 96° (E) 22:57:07 435.000
DUCHIFAT 1 23 Nov 22:50:43 22:53:50 20° 94° (E) 22:56:56 145.980
PCSat 23 Nov 22:51:07 22:54:35 17° 320° (NW) 22:58:03 145.827
FUNcube-1 23 Nov 22:58:48 23:02:25 27° 264° (W) 23:06:00 145.935
TISAT 1 23 Nov 22:58:50 23:01:48 19° 65° (ENE) 23:04:46 437.305
BEESAT 3 23 Nov 23:00:20 23:03:07 17° 319° (NW) 23:05:56 437.485
SPROUT 23 Nov 23:01:06 23:03:55 17° 64° (ENE) 23:06:44 437.525
CUBEBUG 1 23 Nov 23:01:19 23:05:45 74° 75° (ENE) 23:10:13 437.445
UNISAT 6 23 Nov 23:01:24 23:05:34 39° 98° (E) 23:09:48 437.425
UKube-1 23 Nov 23:01:33 23:03:40 13° 269° (W) 23:05:47 .
NANOSAT C BR1 23 Nov 23:09:11 23:12:59 32° 97° (E) 23:16:46 145.865
BEESAT 2 23 Nov 23:14:13 23:16:39 15° 321° (NW) 23:19:07 435.950
CUBEBUG 2 23 Nov 23:14:51 23:17:13 15° 268° (W) 23:19:34 437.445
M-CUBED/EXP-1 PRIME 23 Nov 23:18:01 23:19:14 11° 52° (NE) 23:20:30 437.505
QB50P1 23 Nov 23:18:36 23:22:36 40° 98° (E) 23:26:34 145.935-145.965
UWE-3 23 Nov 23:20:14 23:22:35 14° 268° (W) 23:24:55 435.000/436.395/437.385
ANTELSAT 23 Nov 23:29:41 23:34:08 81° 103° (ESE) 23:38:39 437.575/2403.000
AIST 2 23 Nov 23:37:19 23:40:10 17° 320° (NW) 23:43:02 435.215
ESTCUBE 1 23 Nov 23:41:03 23:45:21 41° 262° (W) 23:49:41 437.505/2401.250
BUGSAT 1 23 Nov 23:42:05 23:46:10 62° 101° (E) 23:50:10 437.445
POPSAT HIP 1 23 Nov 23:42:55 23:47:09 78° 102° (ESE) 23:51:21 437.405
CUSAT 1 23 Nov 23:43:55 23:47:26 23° 75° (ENE) 23:51:45 437.405
RS-15 23 Nov 23:47:38 23:57:19 33° 30° (NNE) 00:07:16 29.354- 29.394
VELOX 1 23 Nov 23:54:05 23:55:56 12° 270° (W) 23:57:47 145.980
DANDE 23 Nov 23:58:57 00:02:29 25° 76° (ENE) 00:06:57 436.750
ISS 24 Nov 00:09:01 00:11:31 20° 134° (SE) 00:14:03 145.825
ITUPSAT 1 24 Nov 00:14:21 00:17:49 20° 63° (ENE) 00:21:19 437.325
POLYITAN 1 24 Nov 00:15:08 00:19:11 45° 288° (WNW) 00:23:13 437.675
QB50P2 24 Nov 00:18:12 00:22:12 42° 289° (WNW) 00:26:11 145.880/145.840
SWISSCUBE 24 Nov 00:25:34 00:29:37 28° 66° (ENE) 00:33:41 437.505
DUCHIFAT 1 24 Nov 00:25:58 00:29:49 35° 290° (WNW) 00:33:39 145.980
TIGRISAT 24 Nov 00:26:12 00:29:54 27° 292° (WNW) 00:33:40 435.000
TISAT 1 24 Nov 00:33:17 00:37:20 42° 261° (W) 00:41:24 437.305
SPROUT 24 Nov 00:35:29 00:39:39 47° 261° (W) 00:43:50 437.525
UNISAT 6 24 Nov 00:38:51 00:42:08 21° 294° (WNW) 00:45:28 437.425
CUBEBUG 1 24 Nov 00:41:39 00:42:38 11° 271° (W) 00:43:38 437.445
NANOSAT C BR1 24 Nov 00:45:24 00:48:43 23° 293° (WNW) 00:52:02 145.865
AUBIESAT-1 24 Nov 00:45:58 00:49:57 80° 70° (ENE) 00:54:21 437.475
M-CUBED/EXP-1 PRIME 24 Nov 00:49:32 00:53:30 86° 252° (WSW) 00:57:54 437.505
QB50P1 24 Nov 00:55:17 00:58:12 19° 295° (WNW) 01:01:07 145.935-145.965
BEESAT 24 Nov 00:56:29 01:01:06 50° 71° (ENE) 01:05:45 436.000
ANTELSAT 24 Nov 01:09:00 01:10:20 11° 299° (WNW) 01:11:40 437.575/2403.000
BUGSAT 1 24 Nov 01:19:29 01:21:09 12° 298° (WNW) 01:22:48 437.445
POPSAT HIP 1 24 Nov 01:21:31 01:22:26 11° 299° (WNW) 01:23:21 437.405
CUSAT 1 24 Nov 01:26:23 01:30:31 38° 263° (W) 01:35:54 437.405
STARS 24 Nov 01:27:24 01:29:57 15° 63° (ENE) 01:32:31 437.465
Oscar 19 24 Nov 01:41:38 01:46:17 33° 97° (E) 01:50:55 437.125/150
DANDE 24 Nov 01:42:05 01:45:54 31° 264° (W) 01:50:51 436.750
ISS 24 Nov 01:44:44 01:47:57 52° 331° (NNW) 01:51:11 145.825
MaSat-1 24 Nov 01:45:38 01:47:56 68° 245° (WSW) 01:50:17 437.345
YUBILEINY 24 Nov 01:46:45 01:52:31 20° 77° (ENE) 01:58:16 435.215
ITUPSAT 1 24 Nov 01:50:43 01:55:22 49° 260° (W) 02:00:03 437.325
RS-15 24 Nov 02:00:13 02:11:30 85° 57° (ENE) 02:23:16 29.354- 29.394
KKS-1 24 Nov 02:01:04 02:05:21 48° 72° (ENE) 02:09:38 437.445
SWISSCUBE 24 Nov 02:03:01 02:07:21 34° 263° (W) 02:11:44 437.505
ITAMSAT 1 24 Nov 02:29:29 02:34:15 36° 97° (E) 02:38:58 435.822/435.867
BEESAT 24 Nov 02:35:58 02:39:13 18° 268° (W) 02:42:30 436.000
Gurwin Techsat 1B 24 Nov 02:48:17 02:53:00 32° 96° (E) 02:57:41 435.225
STARS 24 Nov 03:01:40 03:06:00 56° 259° (W) 03:10:21 437.465
HORYU 2 24 Nov 03:08:15 03:11:32 20° 93° (E) 03:14:49 437.375
Oscar 19 24 Nov 03:21:02 03:25:33 31° 293° (WNW) 03:30:03 437.125/150
ISS 24 Nov 03:22:43 03:25:09 19° 350° (N) 03:27:34 145.825
AO-7 24 Nov 03:30:38 03:35:52 18° 89° (E) 03:41:04 29.400- 29.500
YUBILEINY 24 Nov 03:39:16 03:48:07 87° 277° (W) 03:56:57 435.215
KKS-1 24 Nov 03:39:24 03:42:15 17° 268° (W) 03:45:06 437.445
SO-50 24 Nov 04:03:58 04:07:36 25° 112° (ESE) 04:11:20 436.795
ITAMSAT 1 24 Nov 04:09:10 04:13:37 30° 294° (WNW) 04:18:02 435.822/435.867
PCSat 24 Nov 04:09:54 04:13:28 17° 40° (NE) 04:17:01 145.827
BEESAT 2 24 Nov 04:17:26 04:18:29 11° 34° (NE) 04:19:32 435.950
